Wind_Speed
20 21 21 20 21 17 12 11 10 8 7 7 6 6 5 4 4 3 2 3 4 4 4 4 5 5 5 4 4 4 5 6 6 7 7 7 8 8 8 8 8 7 7 7 7 7 7 7 8
20 20 21 23 19 14 13 12 11 9 9 8 7 7 6 5 5 4 4 4 4 4 5 5 5 5 5 4 4 5 5 5 6 6 6 7 7 7 7 7 7 7 6 6 7 6 6 6 7
21 21 24 21 15 13 13 12 11 10 9 9 8 8 7 6 6 5 5 4 4 4 5 5 5 5 5 4 4 4 4 4 5 5 5 6 7 7 6 6 6 6 5 6 6 6 5 6 6
21 25 25 17 15 15 14 13 12 11 10 9 9 8 7 7 6 6 6 5 4 4 4 5 5 5 5 5 5 5 4 4 5 5 5 5 6 6 6 6 5 5 5 5 5 4 4 5 6
22 25 19 15 14 15 14 14 13 12 11 11 10 8 8 8 8 7 7 6 5 4 5 6 6 5 5 5 5 4 4 4 5 5 5 5 5 5 5 5 5 5 4 3 3 3 4 5 6
24 21 14 14 15 16 16 15 14 13 12 12 11 10 9 9 8 8 7 6 6 5 5 4 4 5 5 5 5 4 4 4 4 5 5 4 5 5 5 4 5 4 4 3 2 2 3 5 6
21 19 14 13 14 15 15 15 14 14 13 13 13 12 11 10 9 8 7 7 6 5 5 4 4 3 4 5 4 4 4 4 4 4 4 4 4 4 5 4 4 4 3 3 2 3 4 5 6
17 16 13 11 12 14 14 14 14 14 14 14 13 13 12 11 10 8 8 8 7 6 5 4 4 4 4 4 4 4 4 4 4 3 3 4 4 5 5 4 4 3 3 3 2 3 4 5 5
15 13 11 10 11 12 14 15 15 15 15 15 14 14 13 12 11 9 8 8 8 8 6 5 5 5 4 4 3 3 4 4 4 4 4 4 4 3 4 4 3 3 3 2 2 3 4 4 5
10 10 9 9 11 12 14 15 16 15 16 15 15 15 13 12 12 11 11 9 8 8 8 7 7 6 6 4 3 3 3 3 4 4 4 4 3 3 2 3 3 2 2 2 1 1 3 4 5
9 9 8 10 11 13 13 15 16 16 16 16 15 15 14 13 12 12 11 11 10 9 9 8 8 7 6 6 5 4 4 4 3 3 3 3 2 2 2 2 2 2 2 2 1 1 2 3 4
7 8 9 10 12 14 14 15 16 17 16 15 15 15 15 14 13 12 12 12 11 9 9 8 8 7 7 7 6 5 5 4 3 3 3 2 2 1 1 1 2 2 2 2 1 1 2 2 4
7 7 9 10 12 13 14 15 15 16 17 16 15 15 15 15 14 13 12 12 11 10 9 8 8 8 7 7 6 5 4 3 3 3 2 2 1 1 1 2 2 2 2 2 2 2 2 3 3
5 6 7 9 11 12 13 14 14 15 17 17 16 16 16 16 14 13 13 12 12 11 10 9 9 8 7 7 6 5 5 4 3 3 2 2 1 2 1 1 2 2 2 2 2 2 3 3 4
3 4 5 7 9 10 10 13 14 15 16 16 16 16 16 16 15 14 14 13 12 12 11 10 9 8 7 7 6 6 5 5 4 4 3 3 2 2 2 2 2 3 4 3 3 3 3 4 5
3 3 4 6 8 9 10 12 14 14 15 15 15 15 15 15 15 14 14 13 12 12 12 11 10 8 7 7 6 5 5 5 4 4 4 3 3 3 3 4 3 4 4 4 4 4 4 5 5
2 3 4 5 7 8 9 11 12 14 14 14 14 14 14 14 14 15 14 13 12 12 11 11 10 9 8 8 7 6 5 5 5 4 4 4 4 4 4 4 4 4 4 4 4 5 5 5 5
2 3 4 3 4 7 8 9 11 13 13 13 13 13 13 13 14 14 14 13 12 12 11 11 10 9 8 7 7 7 6 6 6 5 5 5 5 5 5 5 5 5 5 5 5 5 6 6 6
4 5 4 4 2 4 7 8 9 11 12 12 12 12 12 12 13 13 13 13 12 12 12 11 10 9 9 8 9 8 7 6 6 5 6 6 6 6 6 7 7 7 6 6 6 7 7 8 7
6 6 7 7 4 3 6 8 8 9 10 11 12 11 11 11 11 12 13 13 12 12 12 12 11 9 9 8 8 8 8 7 7 7 6 6 6 6 7 7 8 7 7 7 7 7 8 8 8
9 8 8 8 8 6 6 8 8 8 9 9 10 9 9 10 10 11 11 12 12 12 12 11 11 10 9 9 9 9 8 8 8 8 8 7 7 7 7 8 9 8 8 8 8 8 8 9 9
11 9 9 9 9 9 7 11 10 11 8 8 8 9 8 8 9 10 10 11 11 11 11 11 11 11 10 10 9 9 9 9 9 8 8 8 8 8 8 9 9 9 9 9 9 9 9 9 9
12 11 12 10 10 10 8 11 11 12 10 8 7 8 8 8 8 9 10 10 11 11 11 11 11 10 10 10 10 9 9 9 10 10 9 9 9 9 9 10 10 10 10 10 11 10 10 10 11
14 13 12 11 11 12 10 11 13 15 13 11 7 8 8 9 9 9 10 10 11 11 10 10 11 11 10 10 10 10 10 10 10 10 10 10 9 9 10 11 11 11 11 11 12 12 11 11 11
17 14 11 12 14 14 11 11 14 14 14 11 7 7 9 10 9 9 10 11 11 11 10 10 11 11 11 11 10 11 11 11 11 10 10 11 11 11 12 12 13 13 13 12 12 12 12 12 12
17 16 15 14 15 16 13 15 13 12 13 11 8 9 9 10 10 10 10 11 11 11 10 10 11 11 12 11 11 11 12 12 11 11 11 12 12 13 14 14 14 14 13 13 13 12 13 13 13
19 18 16 16 16 17 17 15 12 12 11 11 10 10 9 10 11 11 11 11 11 11 10 9 11 11 12 11 12 12 13 12 12 12 12 13 13 14 14 15 15 15 14 14 14 14 14 14 14
22 19 17 17 18 18 17 18 16 14 12 11 11 11 10 12 12 12 11 12 12 12 12 11 11 11 12 12 12 13 13 13 13 13 13 13 14 14 15 16 16 16 16 15 15 15 15 15 15
19 20 20 19 18 17 18 19 18 14 11 13 13 13 12 13 13 12 12 13 13 13 13 13 13 13 13 13 13 14 14 13 14 14 14 14 15 15 16 17 17 17 17 16 16 16 16 16 17
20 21 20 20 20 19 20 21 17 15 14 14 15 14 13 14 14 14 14 14 14 14 13 13 14 14 14 14 15 15 14 15 15 15 15 15 16 16 17 17 18 18 18 17 17 17 18 18 18
Wind_Direction
65 64 59 51 47 43 38 37 39 40 42 47 54 57 54 54 56 68 83 92 104 112 114 120 125 123 127 131 137 142 152 157 152 152 154 151 149 144 139 138 139 141 138 135 138 135 136 138 140
64 62 57 48 43 36 30 36 39 41 45 47 53 58 64 61 59 67 80 86 90 105 109 116 122 120 128 135 134 137 146 152 157 156 154 148 145 141 138 144 147 146 144 144 143 142 144 145 149
65 62 58 47 37 32 33 36 39 44 45 46 52 55 66 68 69 69 78 84 86 104 105 109 117 123 128 131 133 141 147 147 148 147 145 145 144 141 140 138 145 148 144 141 141 147 150 152 156
63 61 56 42 32 34 36 38 41 43 45 45 48 53 62 68 69 68 75 83 83 95 99 113 121 123 124 126 129 134 139 142 141 137 137 144 148 149 148 144 146 146 143 137 138 146 154 157 161
64 60 52 36 32 37 37 37 40 42 45 47 49 57 57 64 64 66 74 77 82 91 95 111 117 121 122 125 130 135 136 135 139 136 138 148 154 159 157 153 153 151 153 149 151 159 174 169 169
62 59 45 30 26 34 37 35 38 42 45 46 49 49 55 58 61 66 70 73 76 79 81 91 106 112 118 123 130 138 133 128 131 133 134 140 151 157 158 157 163 164 157 159 166 156 158 171 175
62 61 45 27 23 30 35 35 36 42 44 44 44 48 53 58 63 66 65 69 73 75 75 80 88 101 112 123 129 141 140 134 131 134 132 131 138 151 155 158 162 166 173 171 157 146 147 158 169
64 60 44 27 24 29 33 34 37 41 44 45 46 50 55 59 65 67 64 65 68 66 70 77 85 94 108 121 129 139 136 139 134 129 128 133 137 141 148 150 156 165 171 173 161 141 145 149 162
57 59 48 26 27 33 34 36 39 42 42 45 47 50 54 58 61 60 59 61 61 59 69 72 77 78 83 96 114 130 132 141 143 140 137 135 136 139 147 150 157 162 168 168 172 154 153 157 164
51 57 46 34 33 37 38 37 39 40 42 43 48 51 53 55 57 56 55 54 57 63 65 65 74 81 83 88 103 127 140 145 143 149 144 137 137 130 142 147 152 157 169 170 176 156 172 172 179
49 54 46 44 44 43 41 40 40 37 40 43 45 50 51 52 53 54 53 52 60 63 61 61 63 71 71 75 86 108 118 123 126 141 143 133 123 113 131 144 152 157 169 191 202 185 193 202 199
55 53 47 44 43 43 40 40 38 37 36 41 45 48 48 50 51 51 51 55 59 60 59 62 64 66 66 66 75 87 110 117 110 107 117 105 96 94 158 184 195 198 202 211 218 234 217 214 217
58 52 48 40 41 43 41 40 37 37 34 38 42 44 46 50 48 49 49 49 54 58 61 64 61 64 62 65 66 67 77 85 85 83 88 80 57 12 251 220 237 234 236 232 227 224 231 234 235
69 46 42 39 31 34 36 38 36 37 36 37 40 42 42 43 46 47 47 48 52 55 57 57 59 57 56 59 61 60 61 69 66 60 60 51 26 10 339 270 259 255 256 244 232 240 247 247 247
95 47 30 27 24 22 22 23 31 36 36 35 37 38 39 40 43 44 45 44 46 52 55 55 55 55 52 53 54 52 49 53 49 37 28 18 6 359 349 332 290 265 261 255 260 267 262 266 261
91 37 5 12 17 5 14 17 28 29 32 33 36 38 38 39 41 41 43 44 45 48 49 50 52 53 50 48 49 44 39 39 36 29 17 6 352 338 335 330 307 278 265 264 267 268 267 273 268
7 305 330 359 4 359 10 9 19 20 24 29 32 36 37 38 39 40 41 43 45 45 45 45 46 47 46 45 44 40 34 34 33 26 18 8 351 334 328 328 322 299 284 280 275 269 267 268 265
281 284 300 316 350 353 356 353 358 8 13 22 25 29 33 34 36 37 37 38 40 40 38 38 37 38 39 37 35 34 32 32 29 22 15 10 1 350 342 335 331 322 306 301 300 289 282 277 277
248 269 285 292 314 342 340 343 348 355 6 10 15 21 25 28 30 31 32 34 36 36 35 33 31 28 27 27 26 26 24 20 15 11 9 7 3 356 348 343 336 325 316 310 308 301 292 286 284
241 263 277 280 287 296 322 325 330 336 348 355 3 10 17 23 27 27 27 32 32 30 29 28 25 23 23 22 18 16 16 15 14 11 6 360 355 352 348 344 339 332 323 320 312 306 298 290 287
234 242 264 278 286 298 309 307 310 318 330 342 353 359 7 15 19 20 18 20 22 23 23 21 19 18 19 14 10 6 5 7 7 6 1 356 353 351 347 346 344 339 330 321 314 308 301 295 291
237 240 252 264 275 285 292 291 287 304 303 315 334 344 355 1 8 12 13 13 12 12 13 14 12 10 8 7 5 4 2 359 357 357 355 354 352 348 346 342 339 337 331 322 315 308 304 300 296
230 237 245 248 257 263 267 281 284 288 289 297 319 333 341 346 350 357 1 1 2 2 2 2 2 1 359 358 358 358 357 355 353 351 347 346 344 342 340 338 333 329 327 325 325 319 310 303 298
228 238 243 248 255 263 261 267 276 291 299 302 317 325 327 330 336 342 345 349 350 350 350 350 351 351 351 350 349 348 349 348 347 346 344 342 340 340 337 334 331 324 319 317 319 316 314 308 301
232 239 244 251 255 256 254 259 270 291 299 299 313 316 315 318 324 327 330 335 338 338 340 341 342 342 341 342 340 342 343 343 341 340 340 338 337 336 334 333 330 324 320 317 317 314 310 311 308
235 230 240 250 260 264 253 245 256 280 286 290 292 295 300 308 312 313 315 321 327 329 329 331 333 335 334 335 334 335 335 334 333 333 333 333 332 331 332 329 327 325 322 320 317 312 309 309 309
226 229 236 250 257 265 265 264 262 268 278 280 282 284 291 301 305 306 307 314 319 316 318 324 331 330 330 330 328 329 329 328 327 327 326 328 330 329 329 329 327 325 322 318 315 311 308 306 305
225 225 233 242 256 260 264 268 265 264 269 276 280 283 285 294 299 301 304 310 312 310 315 321 327 327 329 327 324 323 324 323 322 322 322 324 325 326 326 327 326 324 321 317 315 312 310 307 304
232 228 229 234 242 258 266 264 270 270 263 273 277 281 283 291 295 297 298 302 306 309 311 316 317 317 319 318 318 318 318 319 320 318 319 321 322 323 323 323 323 321 319 319 315 311 308 306 303
230 230 228 233 237 243 261 269 273 277 278 277 279 281 284 285 287 290 294 299 301 302 306 308 309 312 311 312 313 315 316 316 315 315 316 317 317 318 318 319 320 319 319 317 315 312 307 304 302
Height
5879 5877 5876 5874 5873 5874 5873 5871 5870 5868 5867 5866 5865 5864 5862 5862 5863 5864 5862 5861 5861 5862 5862 5863 5863 5864 5864 5865 5865 5866 5866 5866 5867 5868 5869 5869 5870 5871 5872 5873 5874 5875 5876 5876 5877 5878 5878 5879 5880
5882 5880 5878 5877 5877 5877 5875 5873 5872 5871 5869 5868 5866 5866 5865 5864 5863 5863 5862 5862 5862 5862 5863 5863 5864 5865 5865 5865 5866 5867 5867 5868 5868 5869 5870 5871 5871 5872 5873 5874 5875 5876 5877 5877 5878 5879 5879 5880 5881
5884 5882 5880 5882 5882 5880 5878 5876 5874 5872 5871 5870 5869 5868 5867 5866 5865 5864 5863 5863 5863 5863 5864 5864 5865 5866 5866 5867 5867 5868 5868 5869 5869 5870 5871 5872 5873 5873 5874 5875 5876 5877 5877 5878 5879 5879 5880 5880 5881
5886 5883 5884 5888 5886 5883 5880 5878 5876 5874 5873 5872 5871 5869 5867 5867 5866 5865 5865 5865 5864 5865 5865 5865 5866 5867 5867 5868 5868 5869 5869 5870 5871 5871 5872 5873 5873 5874 5875 5876 5877 5877 5878 5878 5879 5879 5880 5881 5882
5887 5886 5890 5891 5888 5885 5883 5880 5878 5876 5875 5873 5872 5870 5869 5868 5868 5867 5866 5866 5866 5866 5866 5866 5867 5867 5868 5869 5869 5870 5870 5871 5871 5872 5873 5873 5874 5875 5876 5877 5878 5878 5878 5879 5879 5879 5879 5879 5881
5888 5891 5895 5894 5891 5888 5886 5883 5881 5879 5877 5875 5874 5872 5870 5870 5869 5869 5868 5868 5868 5868 5867 5867 5868 5868 5869 5870 5870 5871 5871 5871 5872 5873 5873 5874 5874 5875 5876 5877 5878 5879 5879 5879 5879 5878 5877 5878 5879
5894 5897 5899 5897 5894 5891 5889 5886 5884 5881 5879 5877 5876 5874 5872 5871 5871 5870 5870 5869 5869 5869 5869 5869 5869 5869 5870 5870 5870 5871 5872 5872 5873 5873 5874 5875 5875 5876 5877 5878 5878 5879 5879 5880 5879 5878 5877 5877 5879
5899 5902 5902 5900 5897 5894 5891 5889 5886 5884 5882 5880 5878 5876 5875 5874 5873 5872 5871 5871 5870 5870 5870 5870 5870 5870 5870 5870 5871 5871 5872 5873 5874 5874 5875 5875 5876 5877 5878 5878 5879 5879 5880 5880 5879 5879 5878 5879 5880
5904 5906 5905 5903 5900 5897 5894 5891 5889 5886 5885 5883 5881 5879 5878 5876 5875 5874 5873 5873 5872 5872 5871 5871 5871 5871 5871 5871 5870 5871 5872 5874 5875 5875 5876 5876 5877 5877 5878 5879 5879 5879 5880 5880 5880 5880 5880 5881 5882
5909 5908 5908 5905 5902 5899 5897 5894 5891 5889 5887 5885 5883 5882 5880 5879 5878 5877 5875 5875 5874 5874 5873 5873 5873 5872 5872 5871 5870 5871 5872 5874 5875 5876 5877 5877 5878 5878 5879 5879 5880 5880 5880 5881 5881 5881 5881 5882 5882
5911 5911 5909 5907 5904 5902 5899 5897 5894 5892 5890 5888 5886 5885 5883 5881 5880 5878 5877 5876 5876 5876 5876 5875 5875 5874 5873 5872 5871 5872 5873 5874 5876 5877 5877 5878 5878 5879 5879 5880 5880 5881 5881 5881 5882 5882 5882 5883 5882
5914 5912 5911 5909 5906 5904 5902 5900 5897 5895 5893 5891 5889 5887 5885 5883 5882 5881 5879 5879 5878 5878 5877 5877 5876 5876 5875 5875 5874 5874 5874 5876 5877 5877 5878 5879 5879 5879 5880 5880 5881 5881 5881 5882 5882 5882 5882 5883 5883
5915 5914 5912 5911 5908 5907 5904 5902 5900 5898 5896 5894 5892 5890 5887 5886 5885 5883 5882 5881 5880 5880 5879 5879 5878 5878 5878 5877 5877 5877 5877 5878 5878 5879 5879 5879 5880 5880 5880 5880 5881 5881 5882 5882 5882 5882 5883 5883 5883
5916 5915 5914 5913 5911 5909 5906 5904 5903 5901 5898 5897 5895 5893 5890 5889 5887 5886 5885 5884 5883 5882 5882 5881 5881 5880 5880 5880 5879 5879 5879 5879 5880 5880 5880 5880 5880 5880 5880 5881 5881 5881 5881 5882 5882 5882 5882 5882 5883
5916 5916 5915 5914 5913 5911 5909 5907 5904 5903 5901 5899 5897 5895 5894 5892 5890 5889 5887 5886 5885 5885 5884 5883 5883 5883 5882 5882 5882 5882 5881 5881 5881 5881 5881 5881 5881 5881 5881 5881 5881 5881 5881 5881 5882 5882 5882 5882 5882
5915 5917 5916 5915 5915 5913 5912 5909 5907 5905 5904 5902 5900 5898 5897 5895 5893 5891 5890 5889 5888 5887 5886 5886 5885 5885 5885 5884 5884 5883 5883 5883 5882 5882 5882 5882 5882 5881 5881 5881 5881 5881 5881 5881 5881 5882 5882 5882 5882
5917 5917 5917 5917 5916 5914 5913 5910 5909 5907 5905 5904 5903 5901 5899 5898 5896 5894 5893 5892 5891 5890 5889 5888 5888 5887 5887 5886 5886 5885 5884 5884 5884 5883 5883 5882 5882 5882 5882 5881 5880 5880 5880 5880 5880 5881 5881 5881 5881
5918 5918 5917 5917 5917 5917 5914 5913 5911 5909 5907 5905 5905 5903 5902 5900 5899 5897 5895 5894 5893 5892 5891 5890 5890 5889 5888 5888 5887 5886 5886 5885 5885 5884 5884 5883 5883 5882 5882 5881 5880 5880 5880 5880 5880 5880 5880 5880 5880
5919 5918 5917 5917 5917 5917 5915 5914 5912 5910 5909 5908 5906 5905 5904 5902 5901 5899 5898 5896 5895 5894 5893 5892 5891 5891 5890 5889 5889 5888 5887 5886 5886 5885 5884 5884 5883 5882 5882 5881 5880 5880 5880 5880 5879 5879 5879 5879 5879
5918 5919 5919 5917 5916 5917 5916 5914 5912 5911 5911 5909 5908 5907 5905 5904 5902 5901 5900 5898 5897 5896 5895 5894 5893 5892 5891 5890 5890 5889 5888 5887 5886 5885 5884 5884 5883 5882 5882 5881 5880 5879 5879 5878 5878 5878 5878 5878 5878
5917 5919 5919 5917 5916 5915 5916 5915 5912 5911 5911 5910 5909 5908 5906 5905 5904 5903 5901 5900 5899 5897 5896 5895 5894 5893 5892 5891 5890 5889 5889 5888 5887 5886 5885 5884 5883 5882 5881 5880 5880 5879 5878 5878 5877 5877 5877 5876 5876
5916 5917 5918 5917 5916 5916 5916 5914 5911 5910 5909 5909 5909 5908 5905 5905 5905 5904 5902 5901 5900 5899 5898 5896 5895 5894 5893 5892 5891 5890 5889 5888 5887 5886 5885 5884 5883 5882 5881 5880 5879 5878 5878 5877 5876 5875 5875 5874 5874
5913 5915 5915 5915 5915 5914 5914 5914 5910 5907 5907 5906 5907 5907 5906 5905 5905 5904 5903 5902 5901 5899 5898 5897 5896 5895 5893 5892 5891 5890 5889 5888 5886 5885 5885 5884 5883 5882 5880 5879 5878 5877 5876 5876 5875 5874 5873 5872 5872
5910 5911 5911 5912 5913 5913 5912 5913 5910 5907 5905 5904 5904 5906 5906 5905 5904 5904 5903 5902 5901 5900 5898 5897 5896 5894 5893 5892 5891 5889 5888 5887 5886 5885 5884 5883 5882 5881 5880 5878 5877 5876 5874 5874 5873 5872 5871 5870 5869
5906 5908 5910 5910 5910 5910 5911 5911 5909 5907 5906 5904 5904 5905 5905 5904 5904 5903 5902 5901 5900 5899 5898 5897 5895 5894 5893 5891 5890 5889 5888 5887 5886 5884 5883 5882 5881 5880 5878 5877 5876 5874 5872 5871 5870 5869 5869 5868 5867
5903 5905 5908 5908 5909 5907 5907 5906 5906 5906 5905 5904 5903 5904 5904 5903 5903 5902 5901 5901 5899 5898 5897 5895 5894 5893 5892 5891 5890 5888 5887 5886 5884 5883 5882 5881 5879 5878 5877 5875 5874 5872 5870 5869 5868 5867 5866 5865 5864
5899 5901 5905 5906 5906 5905 5904 5901 5902 5902 5903 5903 5902 5902 5902 5902 5901 5901 5900 5899 5898 5896 5895 5893 5893 5892 5891 5890 5889 5887 5886 5884 5883 5882 5880 5879 5878 5876 5875 5873 5872 5870 5868 5867 5866 5865 5864 5863 5862
5895 5898 5901 5902 5902 5902 5902 5900 5899 5899 5900 5901 5900 5900 5899 5900 5899 5899 5898 5898 5896 5895 5893 5892 5892 5891 5890 5888 5887 5886 5884 5883 5881 5880 5879 5877 5876 5874 5873 5871 5869 5867 5866 5864 5863 5862 5861 5860 5858
5891 5894 5896 5898 5900 5900 5899 5898 5896 5896 5896 5898 5898 5897 5897 5897 5897 5896 5895 5895 5895 5893 5892 5891 5890 5889 5888 5887 5886 5884 5883 5881 5880 5878 5876 5875 5874 5872 5870 5869 5867 5865 5863 5861 5860 5858 5857 5856 5855
5887 5890 5892 5894 5895 5897 5896 5895 5893 5894 5894 5895 5895 5894 5894 5895 5894 5894 5893 5893 5892 5891 5890 5889 5888 5887 5886 5885 5884 5882 5881 5879 5877 5876 5874 5873 5871 5869 5868 5866 5864 5862 5860 5858 5856 5855 5854 5852 5851